EW4885 Weather Reports


time (UTC)temp
F
wind
direction
speed
knots
gust
knots
rain 1hr
in
rain 24hr
in
rain mn
in
humidity
%
barometer
mb
20260510014540 61 197 2.6 6.1 0.00 0.00 0.00 75 1009.7
20260510013038 61 168 3.5 7.0 0.00 0.00 0.00 78 1009.7
20260510011536 61 153 2.6 5.2 0.00 0.00 0.00 81 1009.6
20260510010034 61 194 0.9 2.6 0.00 0.00 0.00 83 1009.5
20260510004535 61 177 1.7 3.5 0.00 0.00 0.00 83 1009.6
20260510003038 60 159 0.0 0.0 0.00 0.00 0.00 83 1009.5
20260510001526 60 120 0.0 0.0 0.00 0.00 0.00 82 1009.5
20260510000024 60 98 0.0 0.0 0.00 0.00 0.00 82 1009.7
20260509234531 61 98 0.0 1.7 0.00 0.00 0.00 82 1009.9
20260509233021 61 81 0.9 2.6 0.00 0.00 0.00 82 1010.0
20260509231519 61 67 0.9 2.6 0.00 0.00 0.00 82 1010.1
20260509230021 61 78 0.0 0.9 0.00 0.00 0.00 81 1010.2
20260509224516 62 78 0.9 3.5 0.00 0.00 0.00 81 1010.2
20260509223013 62 63 0.9 3.5 0.00 0.00 0.00 80 1010.3
20260509221510 63 52 0.0 0.0 0.00 0.00 0.00 78 1010.4
20260509220010 63 101 0.0 0.0 0.00 0.00 0.00 77 1010.4
20260509214508 64 101 0.0 0.0 0.00 0.00 0.00 77 1010.4
20260509213008 63 207 0.0 2.6 0.00 0.00 0.00 76 1010.4
20260509211507 63 126 0.0 1.7 0.00 0.00 0.00 77 1010.4
20260509210015 63 95 0.9 2.6 0.00 0.00 0.00 77 1010.4
20260509204504 64 150 0.0 0.0 0.00 0.00 0.00 76 1010.4
20260509203004 64 150 0.0 0.0 0.00 0.00 0.00 74 1010.4
20260509201504 65 150 0.0 0.0 0.00 0.00 0.00 74 1010.4
20260509200004 65 150 0.0 1.7 0.00 0.00 0.00 71 1010.5
20260509194524 65 150 0.9 2.6 0.00 0.00 0.00 71 1010.4
20260509193033 66 131 0.9 3.5 0.00 0.00 0.00 71 1010.3
20260509191524 67 105 0.9 2.6 0.00 0.00 0.00 69 1010.1
20260509190023 68 69 0.0 1.7 0.00 0.00 0.00 68 1010.0
20260509184530 69 69 0.0 1.7 0.00 0.00 0.00 62 1010.0
20260509183022 71 69 0.0 1.7 0.00 0.00 0.00 60 1009.9
20260509181521 72 64 0.9 2.6 0.00 0.00 0.00 58 1009.9
20260509180021 73 53 1.7 3.5 0.00 0.00 0.00 57 1009.9
20260509174520 74 70 1.7 2.6 0.00 0.00 0.00 52 1010.1
20260509173021 74 291 0.0 1.7 0.00 0.00 0.00 48 1010.1
20260509171527 74 270 0.9 1.7 0.00 0.00 0.00 49 1010.1
20260509170017 74 211 0.9 3.5 0.00 0.00 0.00 48 1010.2
20260509164519 74 242 1.7 4.3 0.00 0.00 0.00 49 1010.3
20260509163016 74 307 1.7 5.2 0.00 0.00 0.00 46 1010.3
20260509161514 75 238 2.6 6.1 0.00 0.00 0.00 46 1010.3
20260509160017 75 263 3.5 7.0 0.00 0.00 0.00 46 1010.6
20260509154512 76 34 1.7 6.1 0.00 0.00 0.00 45 1010.5
20260509153010 76 308 0.9 4.3 0.00 0.00 0.00 46 1010.7
20260509151508 76 210 2.6 5.2 0.00 0.00 0.00 48 1010.9
20260509150007 76 256 3.5 7.8 0.00 0.00 0.00 50 1010.9
20260509144505 76 269 1.7 6.1 0.00 0.00 0.00 47 1011.1
20260509143005 75 232 2.6 7.8 0.00 0.00 0.00 48 1011.0
20260509141511 75 204 3.5 7.8 0.00 0.00 0.00 50 1011.1
20260509140001 75 266 5.2 10.4 0.00 0.00 0.00 49 1011.1
20260509134600 75 158 2.6 7.8 0.00 0.00 0.00 49 1011.3
20260509133057 75 232 3.5 8.7 0.00 0.00 0.00 51 1011.5
20260509131556 74 247 3.5 8.7 0.00 0.00 0.00 53 1011.6
20260509130105 74 246 2.6 7.8 0.00 0.00 0.00 51 1011.8
20260509124611 75 172 4.3 7.8 0.00 0.00 0.00 50 1011.7
20260509123059 74 186 3.5 7.0 0.00 0.00 0.00 50 1011.7
20260509121552 73 226 1.7 9.6 0.00 0.00 0.00 51 1012.0
20260509120055 73 191 4.3 9.6 0.00 0.00 0.00 50 1012.4
20260509114546 73 247 5.2 9.6 0.00 0.00 0.00 49 1012.5
20260509113046 73 199 2.6 9.6 0.00 0.00 0.00 47 1012.6
20260509111543 73 175 4.3 10.4 0.00 0.00 0.00 50 1012.7
20260509110040 72 262 4.3 7.8 0.00 0.00 0.00 55 1013.0
20260509104538 73 210 3.5 8.7 0.00 0.00 0.00 49 1013.2
20260509103035 73 182 1.7 6.1 0.00 0.00 0.00 51 1013.2
20260509101531 71 137 1.7 9.6 0.00 0.00 0.00 53 1013.5
20260509100038 71 155 2.6 7.8 0.00 0.00 0.00 56 1013.9
20260509094524 70 185 3.5 8.7 0.00 0.00 0.00 60 1013.9
20260509093019 70 154 2.6 6.1 0.00 0.00 0.00 58 1014.0
20260509091517 69 191 4.3 7.0 0.00 0.00 0.00 58 1014.3
20260509090013 68 198 3.5 8.7 0.00 0.00 0.00 61 1014.4
20260509084514 66 194 5.2 8.7 0.00 0.00 0.00 60 1014.5
20260509083008 64 145 5.2 9.6 0.00 0.00 0.00 61 1014.5
20260509081514 64 188 6.1 11.3 0.00 0.00 0.00 56 1014.6
20260509080006 66 188 5.2 11.3 0.00 0.00 0.00 56 1014.7
20260509074502 64 169 5.2 8.7 0.00 0.00 0.00 55 1014.7
20260509073100 65 176 7.0 13.9 0.00 0.00 0.00 56 1014.7
20260509071608 63 192 5.2 7.8 0.00 0.00 0.00 64 1014.6
20260509070054 62 172 4.3 9.6 0.00 0.00 0.00 67 1014.7
20260509064547 60 183 3.5 7.0 0.00 0.00 0.00 71 1014.7
20260509063044 59 157 0.9 3.5 0.00 0.00 0.00 73 1014.6
20260509061549 59 152 2.6 5.2 0.00 0.00 0.00 73 1014.6
20260509060052 59 161 2.6 6.1 0.00 0.00 0.00 72 1014.5
20260509054549 58 136 2.6 5.2 0.00 0.00 0.00 71 1014.5
20260509053038 57 167 1.7 4.3 0.00 0.00 0.00 71 1014.5
20260509051535 57 159 1.7 7.0 0.00 0.00 0.00 70 1014.4
20260509050046 57 144 3.5 7.0 0.00 0.00 0.00 69 1014.3
20260509044541 56 149 3.5 7.0 0.00 0.00 0.00 70 1014.2
20260509043026 56 128 2.6 7.0 0.00 0.00 0.00 71 1014.2
20260509041525 56 173 3.5 7.8 0.00 0.00 0.00 72 1014.0
20260509040024 55 139 3.5 7.0 0.00 0.00 0.00 73 1014.2
20260509034524 55 136 3.5 7.0 0.00 0.00 0.00 74 1014.2
20260509033023 55 131 3.5 7.0 0.00 0.00 0.00 74 1014.3
20260509031523 55 154 2.6 6.1 0.00 0.00 0.00 74 1014.3
20260509030021 54 124 3.5 5.2 0.00 0.00 0.00 75 1014.4
20260509024520 54 128 1.7 6.1 0.00 0.00 0.00 76 1014.3
20260509023019 54 144 3.5 6.1 0.00 0.00 0.00 76 1014.3
20260509021519 54 130 2.6 5.2 0.00 0.00 0.00 76 1014.3
20260509020016 54 140 1.7 5.2 0.00 0.00 0.00 75 1014.3